Location: Poughquag
(41.6090°N, 73.6820°W)
Time: 10:37:12
(UTC-05:00)

Vanguard 3 - Pass Details

Date: 06 December 2023
Orbit: 508 x 3239 km, 33.4° (Epoch: 03 March)

Event Time Altitude Azimuth Distance (km) Brightness Sun altitude
Rises 18:53:21 0° 210° (SSW) 7,066 12.4 -27.1°
Reaches altitude 10° 18:59:35 10° 200° (SSW) 5,797 11.8 -28.2°
Maximum altitude 19:12:00 26° 153° (SSE) 3,783 10.3 -30.5°
Enters shadow 19:14:09 25° 140° (SE) 3,663 10.1 -30.9°
